Dubrovnik, Croatia

6:33 AM CET on December 13, 2017 (GMT +0100)
Cilipi

Weather History for LDDU - December, 2017

Change the Weather History Date:

Saturday, December 9, 2017

  Actual Average (LYTV) Record (LYTV)
Temperature  
Mean Temperature 47 °F -  
Max Temperature 57 °F 56 °F 64 °F (2010)
Min Temperature 37 °F 38 °F 28 °F (2016)
Degree Days  
Heating Degree Days 18    
Moisture  
Dew Point 42 °F    
Average Humidity 74    
Maximum Humidity 94    
Minimum Humidity 57    
Precipitation  
Precipitation 0.35 in - - ()
Sea Level Pressure  
Sea Level Pressure 29.80 in    
Wind  
Wind Speed 16 mph ()    
Max Wind Speed 28 mph    
Max Gust Speed 47 mph    
Visibility 6.7 miles    
Events Rain , Thunderstorm    
Averages and records for this station are not official NWS values.
T = Trace of Precipitation, MM = Missing Value Source: Averaged Metar Reports

Daily Weather History Graph

Daily Weather History Graph

Search for Another Location

Airport or City:

Trip Planner

Search our weather history database for the weather conditions in past years. The results will help you decide how hot, cold, wet, or windy it might be!

Date:

Astronomy

Dec. 09, 2017 Rise Set
Actual Time 7:04 AM CET 4:13 PM CET
Civil Twilight 6:33 AM CET 4:45 PM CET
Nautical Twilight 5:57 AM CET 5:20 PM CET
Astronomical Twilight 5:23 AM CET 5:55 PM CET
Moon 10:59 PM CET (12/9) 11:48 AM CET (12/9)
Length of Visible Light 10h 12m
Length of Day
9h 08m
Waning Gibbous, 60% of the Moon is Illuminated
Dec 9
Waning Gibbous
Dec 10
Last Quarter
Dec 18
New
Dec 26
First Quarter
Jan 2
Full

Hourly Weather History & Observations

Time (CET) Temp. Windchill Dew Point Humidity Pressure Visibility Wind Dir Wind Speed Gust Speed Precip Events Conditions
12:00 AM 55.4 °F - 46.4 °F 72% 30.01 in 6.2 mi SSE 16.1 mph - N/A   Mostly Cloudy
12:30 AM 55.4 °F - 46.4 °F 72% 29.98 in 6.2 mi SSE 16.1 mph - N/A   Mostly Cloudy
1:00 AM 56 °F - 45 °F 57% 29.98 in 16 mi South 17.9 mph - -   Partly Cloudy
1:00 AM 55.4 °F - 46.4 °F 72% 29.98 in 6.2 mi South 17.3 mph - N/A   Mostly Cloudy
1:30 AM 55.4 °F - 42.8 °F 63% 29.95 in 6.2 mi South 16.1 mph - N/A   Mostly Cloudy
2:00 AM 55.4 °F - 44.6 °F 67% 29.95 in 6.2 mi SSE 16.1 mph - N/A   Mostly Cloudy
2:30 AM 55.4 °F - 44.6 °F 67% 29.92 in 6.2 mi South 18.4 mph - N/A   Mostly Cloudy
3:00 AM 55.4 °F - 44.6 °F 67% 29.89 in 6.2 mi South 18.4 mph - N/A   Mostly Cloudy
3:30 AM 55.4 °F - 44.6 °F 67% 29.89 in 6.2 mi South 18.4 mph 31.1 mph N/A Rain Light Rain
4:00 AM 54 °F - 46 °F 67% 29.90 in 7 mi South 17.9 mph - - Rain Rain
4:00 AM 53.6 °F - 46.4 °F 77% 29.89 in 6.2 mi South 16.1 mph - N/A Rain Rain
4:30 AM 51.8 °F - 44.6 °F 76% 29.89 in 6.2 mi South 15.0 mph 28.8 mph N/A Rain Rain
5:00 AM 53.6 °F - 46.4 °F 77% 29.86 in 6.2 mi SSE 17.3 mph 28.8 mph N/A Rain Rain
5:30 AM 53.6 °F - 46.4 °F 77% 29.83 in 6.2 mi SSE 17.3 mph - N/A Rain Light Rain
6:00 AM 53.6 °F - 44.6 °F 72% 29.83 in 6.2 mi SSE 18.4 mph - N/A   Mostly Cloudy
6:30 AM 55.4 °F - 48.2 °F 77% 29.83 in 6.2 mi SSE 17.3 mph - N/A Rain Light Rain
7:00 AM 55 °F - 46 °F 63% 29.82 in 12 mi South 20.1 mph - - Rain Light Rain
7:00 AM 55.4 °F - 46.4 °F 72% 29.80 in 6.2 mi South 17.3 mph 28.8 mph N/A   Mostly Cloudy
7:30 AM 55.4 °F - 46.4 °F 72% 29.80 in 6.2 mi South 18.4 mph - N/A   Mostly Cloudy
8:00 AM 55.4 °F - 48.2 °F 77% 29.77 in 6.2 mi SSE 19.6 mph 32.2 mph N/A   Mostly Cloudy
8:30 AM 55.4 °F - 48.2 °F 77% 29.77 in 6.2 mi South 18.4 mph 32.2 mph N/A Rain Light Rain
9:00 AM 53.6 °F - 50.0 °F 88% 29.77 in 3.1 mi South 19.6 mph 34.5 mph N/A Rain Rain
9:30 AM 53.6 °F - 50.0 °F 88% 29.77 in 3.1 mi South 19.6 mph 32.2 mph N/A Rain Rain
10:00 AM 54 °F - 51 °F 88% 29.77 in 7 mi South 17.9 mph - - Rain Light Rain
10:00 AM 53.6 °F - 51.8 °F 94% 29.77 in 6.2 mi South 19.6 mph - N/A Rain Light Rain
11:00 AM 53.6 °F - 48.2 °F 82% 29.74 in 6.2 mi South 17.3 mph 33.4 mph N/A   Mostly Cloudy
11:30 AM 55.4 °F - 48.2 °F 77% 29.74 in 6.2 mi South 19.6 mph 31.1 mph N/A   Mostly Cloudy
12:00 PM 55.4 °F - 48.2 °F 77% 29.71 in 6.2 mi South 20.7 mph - N/A   Mostly Cloudy
12:30 PM 57.2 °F - 48.2 °F 72% 29.71 in 6.2 mi South 21.9 mph 36.8 mph N/A   Mostly Cloudy
1:00 PM 56 °F - 47 °F 64% 29.71 in 12 mi South 20.1 mph - -   Partly Cloudy
1:00 PM 55.4 °F - 46.4 °F 72% 29.71 in 6.2 mi South 18.4 mph 29.9 mph N/A   Mostly Cloudy
1:30 PM 55.4 °F - 46.4 °F 72% 29.68 in 6.2 mi SSW 17.3 mph - N/A   Mostly Cloudy
2:00 PM 55.4 °F - 41.0 °F 58% 29.68 in 6.2 mi SW 18.4 mph - N/A Thunderstorm Mostly Cloudy
2:30 PM 53.6 °F - 44.6 °F 72% 29.65 in 6.2 mi West 13.8 mph - N/A   Scattered Clouds
3:00 PM 50.0 °F - 42.8 °F 76% 29.65 in 6.2 mi WNW 11.5 mph - N/A   Scattered Clouds
3:30 PM 46.4 °F 37.7 °F 37.4 °F 71% 29.68 in 6.2 mi West 26.5 mph 47.2 mph N/A Rain Light Rain
4:00 PM 45 °F - 38 °F 70% 29.74 in 9 mi WNW 22.4 mph - - Rain Light Rain
4:00 PM 44.6 °F 36.1 °F 37.4 °F 76% 29.71 in 6.2 mi NW 21.9 mph - N/A Rain Light Rain
4:30 PM 44.6 °F 36.4 °F 33.8 °F 66% 29.71 in 6.2 mi NNW 20.7 mph - N/A   Partly Cloudy
5:00 PM 44.6 °F 37.2 °F 35.6 °F 71% 29.71 in 6.2 mi North 17.3 mph - N/A   Scattered Clouds
5:30 PM 44.6 °F 36.4 °F 35.6 °F 71% 29.68 in 6.2 mi North 20.7 mph - N/A   Mostly Cloudy
6:00 PM 44.6 °F 36.4 °F 33.8 °F 66% 29.74 in 6.2 mi North 20.7 mph - N/A Rain Light Rain
6:30 PM 42.8 °F 34.8 °F 33.8 °F 70% 29.74 in 6.2 mi North 17.3 mph - N/A Rain Light Rain
7:00 PM 43 °F - 33 °F 58% 29.78 in 12 mi North 15.7 mph - - Rain Light Rain
7:00 PM 42.8 °F 35.8 °F 33.8 °F 70% 29.77 in 6.2 mi North 13.8 mph - N/A Rain Light Rain
7:30 PM 41.0 °F 34.3 °F 33.8 °F 76% 29.77 in 6.2 mi North 11.5 mph - N/A Rain Light Rain
8:00 PM 41.0 °F 35.2 °F 33.8 °F 76% 29.77 in 6.2 mi North 9.2 mph - N/A Rain Light Rain
8:30 PM 39.2 °F 33.0 °F 35.6 °F 87% 29.80 in 6.2 mi North 9.2 mph - N/A Rain Light Rain
9:00 PM 39.2 °F 34.2 °F 35.6 °F 87% 29.80 in 6.2 mi NNE 6.9 mph - N/A Rain Light Rain
9:30 PM 39.2 °F 37.0 °F 33.8 °F 81% 29.80 in 6.2 mi Variable 3.5 mph - N/A   Partly Cloudy
10:00 PM 39 °F - 35 °F 81% 29.85 in 7 mi NNE 13.4 mph - - Rain Rain
10:00 PM 39.2 °F 30.5 °F 35.6 °F 87% 29.80 in 6.2 mi NNE 16.1 mph 29.9 mph N/A Rain Rain
10:30 PM 39.2 °F 28.5 °F 32.0 °F 75% 29.83 in 6.2 mi NNE 24.2 mph - N/A   Partly Cloudy
11:00 PM 37.4 °F 26.4 °F 30.2 °F 75% 29.83 in 6.2 mi NNE 23.0 mph - N/A   Partly Cloudy
11:30 PM 39.2 °F 27.8 °F 28.4 °F 65% 29.86 in 6.2 mi NNE 27.6 mph - N/A   Partly Cloudy